[[{"header":{"parameterUnit":"m.s-1","parameterCategory":1,"la1":30.2991,"la2":30.254,"lo1":-89.0895,"lo2":-89.0444,"dy":0.0017,"dx":0.0017,"nx":28,"ny":28,"refTime":"2023-04-27T21:00:00:Z","depth":0,"parameterNumber":2,"parameterNumberName":"U-component_of_WINDS"},"data":[0,0,0,0,0,0,0,0,0,0,0,0,0,0,0,0,0,0,0,0,0,0,0,0,0,0,0,0,0,0,0,0,0,0,0,0,0,0,0,0,0,0,0,0,0,0,0,0,0,0,0,0,0,0,0,0,0,0,-0.7862,-0.7862,0,-0.785,-0.785,-0.785,-0.7848,-0.7848,-0.7848,-0.7848,-0.7833,-0.7833,-0.7832,0,0,0,0,0,0,0,0,0,0,0,0,0,-0.7882,-0.7882,-0.7862,-0.7862,-0.7862,-0.785,-0.785,-0.785,-0.7848,-0.7848,-0.7848,-0.7848,-0.7834,-0.7833,-0.7832,0,0,0,0,0,0,0,0,0,0,0,0,0,-0.7872,-0.7882,-0.7862,-0.786,-0.7859,-0.785,-0.785,-0.785,-0.7848,-0.7848,-0.7848,-0.7848,-0.7834,-0.7833,-0.7832,-0.7825,0,0,-0.783,-0.783,0,0,0,0,0,0,0,0,-0.7873,-0.7871,-0.786,-0.786,-0.7859,-0.7851,-0.7852,-0.7841,-0.7848,-0.7852,-0.7848,-0.7848,-0.7839,-0.7838,-0.7835,-0.7824,-0.7824,-0.783,-0.783,-0.7829,-0.7829,0,0,0,0,0,0,0,-0.7873,-0.7872,-0.7857,-0.786,-0.7859,-0.7858,-0.7857,-0.785,-0.7845,-0.7852,-0.7851,-0.785,-0.7839,-0.7836,-0.7835,-0.7823,-0.783,-0.7829,-0.7829,-0.7829,-0.7807,-0.7806,0,0,0,0,0,0,-0.7875,-0.7872,-0.7858,-0.7857,-0.7867,-0.7858,-0.7857,-0.7853,-0.7845,-0.7844,-0.785,-0.785,-0.7837,-0.7836,-0.7834,-0.7825,-0.7829,-0.7829,-0.7828,-0.7807,-0.7807,-0.7806,0,0,0,0,0,0,-0.7875,-0.7874,-0.7858,-0.7865,-0.7863,-0.7858,-0.7854,-0.7853,-0.785,-0.7844,-0.7842,-0.7848,-0.7837,-0.7835,-0.7828,-0.7825,-0.7828,-0.7828,-0.7807,-0.7807,-0.7807,-0.7807,0,0,0,0,0,0,-0.7876,-0.7874,-0.7871,-0.7865,-0.7862,-0.7852,-0.7854,-0.7853,-0.7849,-0.7849,-0.7841,-0.784,-0.7837,-0.7829,-0.7827,-0.7824,-0.7827,-0.7807,-0.7807,-0.7807,-0.7808,-0.7807,-0.7807,0,0,0,0,0,-0.7877,-0.7871,-0.7871,-0.7869,-0.7859,-0.7852,-0.7851,-0.7848,-0.7849,-0.7846,-0.7842,-0.7841,-0.7826,-0.7828,-0.7826,-0.7823,-0.7807,-0.7807,-0.7807,-0.7808,-0.7807,-0.7807,0,0,0,0,0,0,-0.7876,-0.787,-0.787,-0.7862,-0.7858,-0.7852,-0.7848,-0.7847,-0.7842,-0.7842,-0.7838,-0.7836,-0.7829,-0.7825,-0.7828,-0.7815,-0.7816,-0.7816,-0.7818,-0.7818,-0.7817,-0.7818,-0.7827,0,0,0,0,0,-0.7875,-0.7871,-0.7865,-0.7859,-0.7857,-0.7853,-0.785,-0.7848,-0.7843,-0.7841,-0.7836,-0.7831,-0.7825,-0.7821,-0.7815,-0.7807,-0.7806,-0.7804,-0.7804,-0.7804,-0.7803,-0.7799,-0.7798,-0.7805,-0.7805,-0.7805,0,0,-0.7873,-0.7869,-0.7866,-0.7859,-0.7855,-0.7851,-0.7851,-0.7846,-0.7842,-0.784,-0.7833,-0.7829,-0.7823,-0.7815,-0.7812,-0.7812,-0.7801,-0.7803,-0.7803,-0.7802,-0.7799,-0.7798,-0.7797,-0.7805,-0.7805,-0.7805,0,0,-0.7867,-0.7863,-0.7858,-0.7855,-0.785,-0.7847,-0.7846,-0.7841,-0.7839,-0.7832,-0.783,-0.7825,-0.7815,-0.7811,-0.7808,-0.7801,-0.78,-0.7799,-0.7798,-0.7794,-0.7793,-0.7793,-0.7791,-0.779,-0.7799,-0.7799,-0.7799,0,-0.7865,-0.7858,-0.7855,-0.7851,-0.7847,-0.7846,-0.7841,-0.7838,-0.7831,-0.7829,-0.7829,-0.7817,-0.7813,-0.7805,-0.7803,-0.7801,-0.7799,-0.78,-0.7794,-0.7793,-0.7793,-0.7791,-0.779,-0.7799,-0.7799,-0.7799,-0.7799,0,-0.7855,-0.785,-0.7847,-0.7841,-0.7838,-0.7833,-0.783,-0.7826,-0.7825,-0.7823,-0.7816,-0.7811,-0.7805,-0.7803,-0.7801,-0.7794,-0.7795,-0.7795,-0.7796,-0.7792,-0.779,-0.7789,-0.7799,-0.7799,-0.7799,-0.7799,0,0,-0.7847,-0.7842,-0.784,-0.7838,-0.7833,-0.7829,-0.7824,-0.7819,-0.7816,-0.7812,-0.7808,-0.78,-0.78,-0.7796,-0.7794,-0.7791,-0.7787,-0.7791,-0.7791,-0.7791,-0.778,-0.778,-0.7779,-0.7786,-0.7786,-0.7786,-0.7781,0,-0.784,-0.7832,-0.7831,-0.7823,-0.7819,-0.7819,-0.7814,-0.7811,-0.7808,-0.7804,-0.7801,-0.7796,-0.7797,-0.7795,-0.7792,-0.7788,-0.7785,-0.7789,-0.7782,-0.7782,-0.7783,-0.7778,-0.7778,-0.7773,-0.778,-0.778,-0.778,0,-0.7831,-0.7827,-0.782,-0.7816,-0.7815,-0.7811,-0.7806,-0.7802,-0.7798,-0.7797,-0.7794,-0.7792,-0.7787,-0.7789,-0.7782,-0.7784,-0.7782,-0.778,-0.7779,-0.7778,-0.778,-0.7777,-0.7771,-0.7771,-0.7778,-0.7778,-0.7779,0,-0.7826,-0.782,-0.7814,-0.7812,-0.7808,-0.7806,-0.7804,-0.78,-0.7797,-0.7793,-0.7791,-0.7786,-0.7784,-0.778,-0.7777,-0.7779,-0.7771,-0.7772,-0.7769,-0.7769,-0.7767,-0.7767,-0.7761,-0.7766,-0.7766,-0.7766,-0.7766,0,-0.7819,-0.7814,-0.7812,-0.7809,-0.7804,-0.7803,-0.7798,-0.7796,-0.7793,-0.7789,-0.7788,-0.7784,-0.7781,-0.7777,-0.7775,-0.777,-0.7769,-0.7767,-0.7767,-0.7767,-0.7768,-0.7765,-0.7765,-0.7765,-0.7765,-0.7765,-0.7765,0,-0.7812,-0.7811,-0.7805,-0.7802,-0.7801,-0.7798,-0.7795,-0.7792,-0.779,-0.7786,-0.7784,-0.7781,-0.7777,-0.7774,-0.7768,-0.7767,-0.7761,-0.776,-0.7762,-0.7762,-0.776,-0.776,-0.7751,-0.775,-0.7756,-0.7756,-0.7756,0,-0.7807,-0.7804,-0.7801,-0.7799,-0.7797,-0.7793,-0.7791,-0.779,-0.7787,-0.7783,-0.7781,-0.7776,-0.7773,-0.7765,-0.7763,-0.7758,-0.7758,-0.7755,-0.7757,-0.7758,-0.7758,-0.7758,-0.7758,-0.7754,-0.7754,-0.7754,-0.7754,0,-0.7799,-0.7799,-0.7796,-0.7793,-0.779,-0.7787,-0.7785,-0.7783,-0.7781,-0.7778,-0.7774,-0.7772,-0.7766,-0.7762,-0.7758,-0.7755,-0.7754,-0.7754,-0.7753,-0.7753,-0.7755,-0.7754,-0.7762,-0.7754,-0.7754,-0.7754,-0.7754,-0.7754,-0.7793,-0.7791,-0.7788,-0.7785,-0.7783,-0.7781,-0.7778,-0.7777,-0.7774,-0.777,-0.7769,-0.7765,-0.7762,-0.7756,-0.7754,-0.775,-0.775,-0.7749,-0.7749,-0.7748,-0.7749,-0.7756,-0.7749,-0.7749,-0.7749,-0.7749,-0.7749,0,-0.7785,-0.7784,-0.7781,-0.7778,-0.7775,-0.7776,-0.7774,-0.7771,-0.7768,-0.7765,-0.7762,-0.7758,-0.7754,-0.7752,-0.7748,-0.7745,-0.7745,-0.7744,-0.7744,-0.7744,-0.7748,-0.775,-0.7745,-0.7745,-0.7745,-0.7745,-0.7745,-0.7745,-0.778,-0.7776,-0.7776,-0.7771,-0.777,-0.7766,-0.7765,-0.7763,-0.7761,-0.7756,-0.7754,-0.7752,-0.775,-0.7746,-0.7743,-0.7742,-0.7741,-0.774,-0.7739,-0.7743,-0.7744,-0.7744,-0.7745,-0.774,-0.774,-0.7735,-0.7735,-0.7735]},{"header":{"parameterUnit":"m.s-1","parameterCategory":1,"la1":30.2991,"la2":30.254,"lo1":-89.0895,"lo2":-89.0444,"dy":0.0017,"dx":0.0017,"nx":28,"ny":28,"refTime":"2023-04-27T21:00:00:Z","depth":0,"parameterNumber":3,"parameterNumberName":"V-component_of_WINDS"},"data":[0,0,0,0,0,0,0,0,0,0,0,0,0,0,0,0,0,0,0,0,0,0,0,0,0,0,0,0,0,0,0,0,0,0,0,0,0,0,0,0,0,0,0,0,0,0,0,0,0,0,0,0,0,0,0,0,0,0,4.4068,4.4068,0,4.4076,4.4076,4.4076,4.4008,4.4007,4.4005,4.4003,4.4009,4.4011,4.4013,0,0,0,0,0,0,0,0,0,0,0,0,0,4.3993,4.3995,4.4068,4.4068,4.4068,4.4076,4.4076,4.4076,4.4009,4.4006,4.4004,4.4002,4.4009,4.4011,4.4013,0,0,0,0,0,0,0,0,0,0,0,0,0,4.4016,4.3995,4.4068,4.4036,4.4033,4.4075,4.4076,4.4076,4.4009,4.4006,4.4004,4.4001,4.4008,4.4011,4.4014,4.4087,0,0,4.4022,4.4023,0,0,0,0,0,0,0,0,4.4014,4.4018,4.404,4.4038,4.4035,4.4038,4.4051,4.4079,4.401,4.4018,4.4003,4.4,4.4021,4.4023,4.403,4.4087,4.4088,4.4022,4.4024,4.4025,4.4026,0,0,0,0,0,0,0,4.4013,4.4018,4.4071,4.4041,4.4037,4.402,4.402,4.4056,4.4035,4.4017,4.4012,4.4014,4.4019,4.4028,4.403,4.4088,4.4022,4.4025,4.4027,4.4028,4.4203,4.4206,0,0,0,0,0,0,4.4016,4.4017,4.4071,4.4071,4.4018,4.4024,4.4024,4.404,4.4035,4.4031,4.4017,4.4011,4.4024,4.4027,4.403,4.4114,4.4025,4.4028,4.403,4.42,4.4204,4.4207,0,0,0,0,0,0,4.4015,4.4021,4.407,4.4043,4.4048,4.4028,4.4047,4.4042,4.405,4.4034,4.403,4.4029,4.4022,4.4026,4.4073,4.4113,4.4029,4.4032,4.4197,4.4201,4.4205,4.4284,0,0,0,0,0,0,4.4013,4.4021,4.405,4.4044,4.4049,4.4115,4.4049,4.4044,4.4055,4.4048,4.4045,4.4042,4.402,4.4069,4.4076,4.4116,4.4034,4.4193,4.4199,4.4204,4.4278,4.4291,4.4302,0,0,0,0,0,4.401,4.4072,4.4052,4.4059,4.4085,4.4117,4.412,4.4094,4.4059,4.4087,4.4076,4.4042,4.4108,4.4074,4.4081,4.4123,4.419,4.4197,4.4204,4.4273,4.4288,4.4302,0,0,0,0,0,0,4.4084,4.4071,4.4048,4.411,4.4115,4.4106,4.414,4.4112,4.4127,4.412,4.4086,4.4086,4.4138,4.4135,4.4098,4.4193,4.4143,4.4151,4.4193,4.4208,4.4219,4.4219,4.4037,0,0,0,0,0,4.4107,4.4135,4.4122,4.4178,4.4181,4.4161,4.4174,4.4153,4.4157,4.4159,4.4151,4.4156,4.4177,4.4192,4.4211,4.4277,4.4275,4.4309,4.4321,4.4331,4.4338,4.4371,4.4386,4.4229,4.4229,4.4229,0,0,4.4156,4.4152,4.4172,4.4192,4.4194,4.4222,4.4163,4.4196,4.4217,4.4163,4.4207,4.4202,4.4205,4.4261,4.4286,4.426,4.4381,4.4339,4.4347,4.4349,4.438,4.4394,4.4408,4.4233,4.4232,4.4232,0,0,4.4259,4.4259,4.4305,4.4307,4.431,4.4296,4.4307,4.4301,4.4296,4.4339,4.4299,4.4323,4.4361,4.4364,4.4371,4.4473,4.4441,4.448,4.4542,4.4575,4.4587,4.4598,4.4633,4.4646,4.4487,4.4487,4.4488,0,4.4319,4.4361,4.4332,4.4367,4.4377,4.433,4.4375,4.4378,4.4387,4.4395,4.4366,4.4412,4.441,4.4466,4.4491,4.4498,4.4508,4.448,4.4588,4.4598,4.4608,4.4641,4.4655,4.4492,4.4491,4.4491,4.4491,0,4.4434,4.4463,4.45,4.4509,4.4522,4.4563,4.4539,4.4556,4.4533,4.4522,4.4565,4.4562,4.4579,4.459,4.4569,4.4642,4.4626,4.4593,4.4542,4.4628,4.4658,4.4671,4.4499,4.4497,4.4496,4.4494,0,0,4.4584,4.4576,4.459,4.4592,4.4591,4.4613,4.465,4.4667,4.4681,4.4688,4.4718,4.4751,4.4719,4.4727,4.4705,4.4734,4.4814,4.4697,4.4697,4.4718,4.4893,4.4917,4.4933,4.4793,4.4795,4.4797,4.4892,0,4.4684,4.4747,4.4721,4.4787,4.4813,4.4767,4.4799,4.4802,4.4791,4.4811,4.4799,4.4822,4.478,4.4784,4.481,4.4798,4.4848,4.4791,4.4819,4.482,4.482,4.4949,4.4975,4.5066,4.4904,4.4906,4.4907,0,4.4809,4.4821,4.4889,4.4881,4.4891,4.492,4.4932,4.4952,4.4953,4.4943,4.4951,4.4922,4.4957,4.4906,4.4953,4.4915,4.4925,4.4921,4.4923,4.4925,4.4869,4.4953,4.5094,4.5107,4.4926,4.4925,4.4923,0,4.491,4.4943,4.4988,4.4992,4.4984,4.5006,4.5003,4.5001,4.5012,4.5022,4.5029,4.5043,4.5051,4.5062,4.5038,4.5004,4.5088,4.5035,4.508,4.5081,4.51,4.5099,4.5244,4.5107,4.5107,4.5106,4.5106,0,4.5024,4.5067,4.5033,4.506,4.5107,4.5076,4.5122,4.5115,4.5113,4.5138,4.5099,4.5123,4.509,4.511,4.5091,4.5132,4.5136,4.5128,4.5123,4.5132,4.5133,4.5138,4.5131,4.511,4.5109,4.5108,4.5108,0,4.5146,4.5125,4.517,4.5159,4.5157,4.5191,4.5181,4.5205,4.5191,4.5222,4.5228,4.5206,4.5228,4.5205,4.5225,4.5212,4.5267,4.5252,4.5267,4.5263,4.5308,4.5304,4.5461,4.5479,4.5331,4.5333,4.5334,0,4.522,4.5252,4.5243,4.5257,4.5257,4.5279,4.5289,4.5259,4.5272,4.5274,4.5298,4.5316,4.5329,4.5365,4.5351,4.5366,4.5351,4.5405,4.5353,4.5361,4.5351,4.5349,4.5352,4.5416,4.5417,4.5419,4.542,0,4.5353,4.534,4.5357,4.537,4.5383,4.5392,4.5397,4.541,4.5379,4.5395,4.5416,4.5426,4.5446,4.5464,4.5474,4.5471,4.5441,4.5436,4.5447,4.5457,4.5463,4.546,4.5295,4.5433,4.5432,4.5431,4.543,4.5429,4.5452,4.5478,4.5475,4.5495,4.5495,4.5501,4.5523,4.5511,4.5528,4.5542,4.5523,4.5549,4.5547,4.5558,4.5558,4.5578,4.5555,4.5571,4.5575,4.558,4.5586,4.546,4.558,4.5579,4.5579,4.5579,4.5578,0,4.5582,4.5578,4.5596,4.5605,4.5619,4.5588,4.5593,4.5607,4.5631,4.5632,4.5645,4.5668,4.5686,4.5672,4.5686,4.5704,4.5691,4.5709,4.5707,4.5707,4.5606,4.5595,4.572,4.572,4.572,4.572,4.572,4.572,4.5652,4.5693,4.568,4.572,4.5715,4.5741,4.5746,4.575,4.5751,4.5779,4.5793,4.5784,4.5778,4.5792,4.5806,4.5801,4.5808,4.5832,4.5822,4.5728,4.5714,4.5701,4.569,4.5833,4.5834,4.5921,4.5922,4.5923]}]]